Date String (YYYY-MM-DD hh:mm:ss) UTC,Instrument flags,absolute air pressure of the measurement (hPa),sample flow rate (lpm),inlet stack bypass flow (lpm),air temperature of the measurement (°C),ambient temperature measured by the external sensor (°C),aerosol sample conditioner tube jacket temperature (°C),OPC LED temperature (°C),internal box temperature (°C),relative humidity of the measurement (%),span deviation,mass concentration of particles derived from Lorenz-Mie calculation of OPC scattering (μg/m³),mass concentration of particles derived from Lorenz-Mie calculation of OPC scattering (μg/m³),mass concentration of particles derived from Lorenz-Mie calculation of OPC scattering (μg/m³)
DateTimeUTC,F1_M11,P_M11,Q1_M11,Q2_M11,T1_M11,T2_M11,T3_M11,T4_M11,T5_M11,U1_M11,ZSPAN_M11,X0_M11,X2_M11,X1_M11
2024-05-09 20:00:00,SystemResetWarning,0833.1,4.99,000.00,025.5,024.9,000.0,033.7,027.3,016.5,0000.0,0002.83,0001.21,0000.95
2024-05-09 20:01:00,SystemResetWarning,0833.2,5.01,000.00,025.5,025.0,000.0,033.7,027.4,016.4,0000.0,0005.54,0001.22,0000.94
2024-05-09 20:02:00,SystemResetWarning,0833.2,5.00,000.00,025.6,025.1,000.0,033.7,027.4,016.3,0000.0,0006.25,0001.23,0000.94
2024-05-09 20:03:00,SystemResetWarning,0833.2,5.01,000.00,025.6,025.2,000.0,033.8,027.5,016.0,0000.0,0006.25,0001.23,0000.95
2024-05-09 20:04:00,SystemResetWarning,0833.2,5.01,000.00,025.7,025.2,000.0,033.8,027.5,015.9,0000.0,0006.31,0001.26,0000.96
2024-05-09 20:05:00,SystemResetWarning,0833.2,5.00,000.00,025.7,025.3,000.0,033.8,027.6,015.8,0000.0,0006.32,0001.27,0000.97
2024-05-09 20:06:00,SystemResetWarning,0833.2,5.00,000.00,025.8,025.4,000.0,033.9,027.6,015.6,0000.0,0006.80,0001.25,0000.97
2024-05-09 20:07:00,SystemResetWarning,0833.2,5.00,000.00,025.8,025.4,000.0,033.9,027.7,015.3,0000.0,0006.83,0001.23,0000.97
2024-05-09 20:08:00,SystemResetWarning,0833.2,5.00,000.00,025.9,025.5,000.0,033.9,027.7,015.5,0000.0,0007.26,0001.20,0000.97
2024-05-09 20:09:00,SystemResetWarning,0833.1,5.00,000.00,025.9,025.5,000.0,034.0,027.8,015.5,0000.0,0007.39,0001.22,0000.96
2024-05-09 20:10:00,SystemResetWarning,0833.1,5.00,000.00,026.0,025.6,000.0,034.0,027.8,015.5,0000.0,0007.28,0001.22,0000.95
2024-05-09 20:11:00,SystemResetWarning,0833.1,5.00,000.00,026.0,025.4,000.0,034.0,027.7,015.6,0000.0,0007.18,0001.18,0000.92
2024-05-09 20:12:00,SystemResetWarning,0833.1,4.99,000.00,025.7,023.3,000.0,034.1,026.6,015.0,0000.0,0004.64,0001.13,0000.90
2024-05-09 20:13:00,SystemResetWarning,0833.2,5.02,000.00,025.2,021.5,000.0,034.1,025.6,015.0,0000.0,0003.29,0001.10,0000.87
2024-05-09 20:14:00,SystemResetWarning,0833.3,5.00,000.00,024.9,021.6,000.0,034.0,025.5,016.2,0000.0,0003.37,0001.10,0000.83
2024-05-09 20:15:00,SystemResetWarning,0833.0,4.98,000.00,024.8,022.1,000.0,033.8,025.8,015.9,0000.0,0003.33,0001.06,0000.80
2024-05-09 20:16:00,SystemResetWarning,0833.0,5.00,000.00,024.8,022.5,000.0,033.7,026.1,016.2,0000.0,0003.40,0001.02,0000.78
2024-05-09 20:17:00,SystemResetWarning,0833.0,5.01,000.00,024.9,023.0,000.0,033.6,026.3,016.5,0000.0,0002.91,0001.00,0000.76
2024-05-09 20:18:00,SystemResetWarning,0833.0,5.00,000.00,024.9,023.4,000.0,033.5,026.5,016.7,0000.0,0002.97,0001.00,0000.74
2024-05-09 20:19:00,SystemResetWarning,0833.1,5.00,000.00,025.0,023.7,000.0,033.5,026.7,017.1,0000.0,0002.47,0000.98,0000.72
2024-05-09 20:20:00,SystemResetWarning,0833.2,5.00,000.00,025.0,023.9,000.0,033.4,026.8,017.3,0000.0,0003.57,0000.95,0000.70
2024-05-09 20:21:00,SystemResetWarning,0833.1,5.00,000.00,025.1,024.2,000.0,033.4,026.9,017.1,0000.0,0003.57,0000.91,0000.70
2024-05-09 20:22:00,SystemResetWarning,0833.1,5.00,000.00,025.1,024.3,000.0,033.4,026.9,016.7,0000.0,0003.49,0000.89,0000.71
2024-05-09 20:23:00,SystemResetWarning,0833.0,5.01,000.00,025.2,024.5,000.0,033.4,027.0,016.5,0000.0,0003.58,0000.91,0000.73
2024-05-09 20:24:00,SystemResetWarning,0833.0,5.00,000.00,025.3,024.6,000.0,033.5,027.1,016.2,0000.0,0004.48,0000.93,0000.75
2024-05-09 20:25:00,SystemResetWarning,0833.2,4.99,000.00,025.3,024.8,000.0,033.5,027.2,016.0,0000.0,0004.57,0000.94,0000.79
2024-05-09 20:26:00,SystemResetWarning,0833.2,4.99,000.00,025.4,024.9,000.0,033.5,027.3,016.0,0000.0,0004.56,0000.94,0000.81
2024-05-09 20:27:00,SystemResetWarning,0833.5,5.01,000.00,025.4,025.0,000.0,033.5,027.3,015.7,0000.0,0004.43,0000.94,0000.81
2024-05-09 20:28:00,SystemResetWarning,0833.1,5.02,000.00,025.5,025.1,000.0,033.6,027.4,015.9,0000.0,0005.22,0000.96,0000.81
2024-05-09 20:29:00,SystemResetWarning,0833.5,5.00,000.00,025.5,025.1,000.0,033.6,027.4,015.8,0000.0,0005.15,0001.00,0000.81
2024-05-09 20:30:00,SystemResetWarning,0833.3,4.99,000.00,025.6,025.2,000.0,033.6,027.5,015.7,0000.0,0005.07,0001.02,0000.83
2024-05-09 20:31:00,SystemResetWarning,0833.1,5.00,000.00,025.7,025.3,000.0,033.7,027.6,015.6,0000.0,0004.03,0001.03,0000.85
2024-05-09 20:32:00,SystemResetWarning,0833.1,5.00,000.00,025.7,025.3,000.0,033.7,027.6,015.8,0000.0,0003.80,0001.05,0000.86
2024-05-09 20:33:00,SystemResetWarning,0833.1,4.99,000.00,025.8,025.4,000.0,033.7,027.7,015.9,0000.0,0004.28,0001.08,0000.87
2024-05-09 20:34:00,SystemResetWarning,0833.1,5.00,000.00,025.8,025.5,000.0,033.8,027.7,015.9,0000.0,0005.26,0001.09,0000.88
2024-05-09 20:35:00,SystemResetWarning,0833.1,5.00,000.00,025.9,025.5,000.0,033.8,027.8,015.7,0000.0,0005.07,0001.12,0000.89
2024-05-09 20:36:00,SystemResetWarning,0833.0,4.99,000.00,025.8,024.5,000.0,033.9,027.2,016.0,0000.0,0004.75,0001.14,0000.91
2024-05-09 20:37:00,SystemResetWarning,0833.1,5.00,000.00,025.3,021.9,000.0,034.0,025.8,016.7,0000.0,0004.81,0001.16,0000.91
2024-05-09 20:38:00,SystemResetWarning,0833.0,5.02,000.00,024.9,021.3,000.0,033.9,025.4,017.1,0000.0,0004.91,0001.17,0000.91
2024-05-09 20:39:00,SystemResetWarning,0833.0,5.00,000.00,024.8,021.7,000.0,033.8,025.6,017.3,0000.0,0004.27,0001.15,0000.92
2024-05-09 20:40:00,SystemResetWarning,0833.0,4.99,000.00,024.7,022.2,000.0,033.6,025.9,017.1,0000.0,0004.01,0001.11,0000.93
2024-05-09 20:41:00,SystemResetWarning,0833.4,5.00,000.00,024.7,022.6,000.0,033.5,026.1,016.9,0000.0,0004.81,0001.11,0000.93
2024-05-09 20:42:00,SystemResetWarning,0833.3,5.01,000.00,024.8,023.1,000.0,033.4,026.3,016.7,0000.0,0004.84,0001.12,0000.92
2024-05-09 20:43:00,SystemResetWarning,0833.4,4.99,000.00,024.8,023.4,000.0,033.4,026.5,017.0,0000.0,0004.89,0001.15,0000.93
2024-05-09 20:44:00,SystemResetWarning,0833.1,5.00,000.00,024.9,023.7,000.0,033.3,026.6,017.0,0000.0,0004.38,0001.15,0000.92
2024-05-09 20:45:00,SystemResetWarning,0833.1,5.00,000.00,025.0,024.0,000.0,033.3,026.7,017.1,0000.0,0003.96,0001.21,0000.91
2024-05-09 20:46:00,SystemResetWarning,0833.1,5.00,000.00,025.0,024.2,000.0,033.3,026.8,017.0,0000.0,0003.32,0001.20,0000.90
2024-05-09 20:47:00,SystemResetWarning,0833.2,5.00,000.00,025.1,024.4,000.0,033.3,026.9,016.9,0000.0,0004.22,0001.17,0000.88
2024-05-09 20:48:00,SystemResetWarning,0833.2,5.00,000.00,025.1,024.5,000.0,033.3,027.0,016.4,0000.0,0004.23,0001.17,0000.89
2024-05-09 20:49:00,SystemResetWarning,0833.2,5.00,000.00,025.2,024.6,000.0,033.3,027.1,016.4,0000.0,0004.34,0001.19,0000.90
2024-05-09 20:50:00,SystemResetWarning,0833.1,5.00,000.00,025.3,024.8,000.0,033.4,027.2,016.6,0000.0,0004.46,0001.24,0000.92
2024-05-09 20:51:00,SystemResetWarning,0833.1,5.00,000.00,025.3,024.9,000.0,033.4,027.2,016.6,0000.0,0004.62,0001.28,0000.94
2024-05-09 20:52:00,SystemResetWarning,0833.1,5.01,000.00,025.4,025.0,000.0,033.4,027.3,016.4,0000.0,0004.08,0001.30,0000.94
2024-05-09 20:53:00,SystemResetWarning,0833.3,5.00,000.00,025.5,025.1,000.0,033.5,027.4,016.5,0000.0,0003.82,0001.30,0000.94
2024-05-09 20:54:00,SystemResetWarning,0833.4,5.00,000.00,025.5,025.1,000.0,033.5,027.4,016.4,0000.0,0003.87,0001.31,0000.93
2024-05-09 20:55:00,SystemResetWarning,0833.2,5.01,000.00,025.6,025.2,000.0,033.5,027.5,016.1,0000.0,0003.80,0001.28,0000.93
2024-05-09 20:56:00,SystemResetWarning,0833.2,5.00,000.00,025.6,025.3,000.0,033.6,027.5,016.2,0000.0,0003.49,0001.21,0000.93
2024-05-09 20:57:00,SystemResetWarning,0833.2,5.00,000.00,025.7,025.3,000.0,033.6,027.6,015.9,0000.0,0002.96,0001.16,0000.94
2024-05-09 20:58:00,SystemResetWarning,0833.1,5.00,000.00,025.7,025.4,000.0,033.7,027.6,015.8,0000.0,0002.67,0001.16,0000.94
2024-05-09 20:59:00,SystemResetWarning,0833.0,4.98,000.00,025.7,024.2,000.0,033.8,027.0,015.7,0000.0,0002.77,0001.15,0000.94
